STARLINK-11298, 61211

Orbit data source: Space-Track

STARLINK-11298, 61211 is a payload satellite owned by SpaceX/Seattle (US) in LEO that was launched on Fri, 20 Sep 2024 UTC via an FALCON 9 launch vehicle from the Air Force Western Test Range (AFWTR). Payload-class satellites include a variety of spacecraft equipped with specific instruments for various scientific and technological missions. These include communications satellites like Starlink; space stations such as the ISS; scientific satellites like the Hubble; Earth observation satellites from companies like Planet Labs, Umbra, and HawkEye 360; GPS; miniature CubeSats for education and research; and military/defense satellites.

Loading next visibility...
Identifier
61211, 2024-171M
Orbit
LEO
Country
Flag of USUS
Related business
Manufacturer
SpaceX/Seattle
Mission
Operational Commercial Communications
Bus & Motor
STARLINK V2MD, Unknown motor
Mass
960 kg wet, ~910 kg dry
Launch date (UTC)
2024-09-20 (2 years ago)
Launch vehicle
FALCON 9
Launch site
Air Force Western Test Range (AFWTR)
Object type
Payload
Rocket body
Debris
Shape & HBR
Box + 2 Pan, 18.1 m
Radar Cross Section
36.964 m², Large (>1 m²)

Expand to show TLE details & history
Last TLE update: 13 hours ago

TLE from 13 hours ago
0 STARLINK-11298
1 61211U 24171M   26171.31850093  .00000410  00000-0  82388-5 0  9991
2 61211  53.1603  30.6343 0000930  66.3459 293.7656 15.69716235100515
Epoch: 2026-06-20T07:38Z
TLE epoch observation values (Epoch: 2026-06-20T07:38:38.480Z)
Latitude
-0.00005°
Longitude
7.43909°
Altitude
360.372 km
Speed
7.694 km/s
True Right ascension
02h 02m 32s
True Declination
0° 00' 00"
Sunlit
Object was in daylight at epoch
Visualization orbit readout
Latitude
Unknown
Longitude
Unknown
Altitude
Unknown
Speed
Unknown
Apparent Right ascension
Unknown
Apparent Declination
Unknown
Sunlit
N/A
Visualization observer readout
Local Sidereal Time
07:17:51
Azimuth
Unknown
Elevation
Unknown
Doppler factor
Unknown
Orbital elements
Apogee altitude
360.596 km
Perigee altitude
359.343 km
Semi-major axis
6,738.107 km
Eccentricity
0.00009
Inclination
53.1603°
RAAN
30.6343°
Arg. of periapsis
66.3459°
True anomaly
293.75585°
Mean anomaly
293.7656°
Eccentric anomaly
293.76072°
Mean motion
3.92407 °/min
Orbital period
91.74 mins
BSTAR
0.0000082388
Loading maneuver chart data...
Computing Atmospheric mass density...
Loading historical data...
Loading historical data...
Loading historical data...
Loading historical data...
Loading historical data...
Loading historical data...
Loading historical data...

Documentation

Showing up to 5 results
|